星链-6061 (STARLINK-6061 )

导读

STARLINK-6061是美国SpaceX星链互联网卫星星座的一员,于2023年5月31日发射入轨。星链计划旨在构建全球卫星互联网星座,为全球偏远地区、海洋空域等提供低延迟高速互联网接入服务,该卫星加入后进一步拓展了星链星座的覆盖范围与服务能力,是星座部署推进过程中的组成单元。

基本信息
目录编号:
56795
目录名称:
STARLINK-6061
国际标识:
2023-078AE
轨道中心:
EARTH
卫星名称:
星链-6061
卫星全名:
星链-6061 (STARLINK-6061 )
卫星状态:
在轨 (已飞行1200 天)
发射日期:
2023-05-31 UTC
国别 :
美国 (US)
星等 :
--
该卫星已列入 空间交会检测服务 Space Conjunction Data Service (SCDS) ,当前飞行风险评估等级: 无高风险
轨道信息
数据来源 国际轨道数据
星历时间: 2026-09-12T10:56:58+0800
12小时前
查看轨道信息
半长轴: 6950.115km
偏心率: 0.0002993
轨道倾角: 70.000°
近地点辐角 271.236°
升交点赤经 214.219°
平近点角 88.845°
近地点: 569.897km
远地点: 574.059km
周期: 96.105分钟
每日圈数: 14.983553
详细信息
固有亮度:
5
最大亮度:
2.5
卫星平台:
Starlink v1.5
覆盖范围:
全球
运营商:
太空探索技术公司
运营商所在国:
美国
制造商(研发单位):
太空探索技术公司
制造商所在国:
美国
使用方式:
暂无
卫星简介
星链(Starlink)计划是由太空探索技术公司(SpaceX)提出的一个巨型低轨卫星互联网星座项目,计划在2019年至2024年间在太空搭建由约1.2万颗卫星组成的“星链”网络,其中1584颗将部署在地球上空550千米处的近地轨道,并从2020年开始工作。该卫星仍在工作。
2D轨道图
3D轨道图
轨道高度分析图
轨道倾角分析图
轨道综合分析图
查看轨道综合分析图
交会数据列表
事件ID 空间交会对象 最接近时刻(TCA) 交会距离 交会风险概率(CRP) 交会风险指数(CRI) 操作
CDM_260914-215103-976905-679521
RISING 2 (39769)
2026-09-14T
21:51:05+0000
1.731 km
极远距离
3.927297E-6 低风险 0.47
CDM_260912-130505-452305-679521
2026-09-12T
13:05:56+0000
2.885 km
极远距离
1.411135E-6 低风险 0.38
与全量物体交会距离演化趋势
与全量物体交会风险概率演化趋势